Track IRIDIUM 132 now! 10-day predictions IRIDIUM 132 is classified as:
1 42961U 17061G 24325.79438331 .00000530 00000-0 18210-3 0 9994 2 42961 86.3956 264.8211 0002356 79.6957 280.4504 14.34219407372633